| time (UTC) | temp C | wind direction | speed KPH | gust KPH | rain 1hr cm | rain 24hr cm | rain mn cm | humidity % | barometer mb |
| 20260504050451 | 7 | 299 | 0.0 | 0.0 | 0.00 | 0.00 | 0.00 | 85 | 1015.4 |
| 20260504045948 | 7 | 299 | 0.0 | 0.0 | 0.00 | 0.00 | 0.00 | 85 | 1015.4 |
| 20260504045443 | 7 | 299 | 0.0 | 0.0 | 0.00 | 0.00 | 0.00 | 84 | 1015.4 |
| 20260504044940 | 7 | 299 | 0.0 | 0.0 | 0.00 | 0.00 | 0.00 | 83 | 1015.2 |
| 20260504044438 | 8 | 299 | 0.0 | 0.0 | 0.00 | 0.00 | 0.00 | 84 | 1015.3 |
| 20260504043935 | 8 | 299 | 0.0 | 0.0 | 0.00 | 0.00 | 0.00 | 85 | 1015.5 |
| 20260504043431 | 8 | 299 | 0.0 | 0.0 | 0.00 | 0.00 | 0.00 | 85 | 1015.4 |
| 20260504042929 | 7 | 299 | 0.0 | 0.0 | 0.00 | 0.00 | 0.00 | 85 | 1015.7 |
| 20260504042426 | 8 | 299 | 0.0 | 0.0 | 0.00 | 0.00 | 0.00 | 86 | 1015.7 |
| 20260504041922 | 8 | 299 | 0.0 | 0.0 | 0.00 | 0.00 | 0.00 | 85 | 1015.7 |
| 20260504041418 | 8 | 299 | 0.0 | 0.0 | 0.00 | 0.00 | 0.00 | 85 | 1015.6 |
| 20260504040914 | 8 | 299 | 0.0 | 0.0 | 0.00 | 0.00 | 0.00 | 85 | 1015.6 |
| 20260504040412 | 8 | 299 | 0.0 | 0.0 | 0.00 | 0.00 | 0.00 | 83 | 1015.5 |
| 20260504035907 | 8 | 299 | 0.0 | 0.0 | 0.00 | 0.00 | 0.00 | 82 | 1015.5 |
| 20260504035405 | 8 | 299 | 0.0 | 0.0 | 0.00 | 0.00 | 0.00 | 80 | 1015.6 |
| 20260504034901 | 8 | 299 | 0.0 | 0.0 | 0.00 | 0.00 | 0.00 | 79 | 1015.6 |
| 20260504034359 | 8 | 299 | 0.0 | 1.6 | 0.00 | 0.00 | 0.00 | 81 | 1015.6 |
| 20260504033855 | 8 | 299 | 0.0 | 0.0 | 0.00 | 0.00 | 0.00 | 83 | 1015.7 |
| 20260504033354 | 8 | 244 | 0.0 | 1.6 | 0.00 | 0.00 | 0.00 | 76 | 1015.8 |
| 20260504032850 | 8 | 245 | 0.0 | 0.0 | 0.00 | 0.00 | 0.00 | 78 | 1015.6 |
| 20260504032347 | 8 | 245 | 0.0 | 0.0 | 0.00 | 0.00 | 0.00 | 79 | 1015.5 |
| 20260504031844 | 8 | 245 | 0.0 | 0.0 | 0.00 | 0.00 | 0.00 | 78 | 1015.5 |
| 20260504031341 | 8 | 245 | 0.0 | 0.0 | 0.00 | 0.00 | 0.00 | 76 | 1015.8 |
| 20260504030837 | 8 | 245 | 0.0 | 0.0 | 0.00 | 0.00 | 0.00 | 76 | 1015.5 |
| 20260504030335 | 8 | 245 | 0.0 | 0.0 | 0.00 | 0.00 | 0.00 | 77 | 1015.6 |
| 20260504025831 | 8 | 245 | 0.0 | 0.0 | 0.00 | 0.00 | 0.00 | 80 | 1015.6 |
| 20260504025328 | 9 | 245 | 0.0 | 0.0 | 0.00 | 0.00 | 0.00 | 79 | 1015.8 |
| 20260504024825 | 9 | 245 | 0.0 | 0.0 | 0.00 | 0.00 | 0.00 | 78 | 1015.7 |
| 20260504024321 | 9 | 245 | 0.0 | 0.0 | 0.00 | 0.00 | 0.00 | 75 | 1015.8 |
| 20260504023818 | 9 | 245 | 0.0 | 0.0 | 0.00 | 0.00 | 0.00 | 76 | 1015.8 |
| 20260504023315 | 9 | 245 | 0.0 | 0.0 | 0.00 | 0.00 | 0.00 | 76 | 1015.6 |
| 20260504022810 | 9 | 245 | 0.0 | 0.0 | 0.00 | 0.00 | 0.00 | 78 | 1015.7 |
| 20260504022307 | 9 | 245 | 0.0 | 0.0 | 0.00 | 0.00 | 0.00 | 80 | 1015.5 |
| 20260504021803 | 9 | 245 | 0.0 | 0.0 | 0.00 | 0.00 | 0.00 | 80 | 1015.6 |
| 20260504021301 | 9 | 245 | 0.0 | 1.6 | 0.00 | 0.00 | 0.00 | 81 | 1015.7 |
| 20260504020758 | 9 | 244 | 0.0 | 0.0 | 0.00 | 0.00 | 0.00 | 76 | 1015.5 |
| 20260504020255 | 9 | 244 | 0.0 | 0.0 | 0.00 | 0.00 | 0.00 | 75 | 1015.6 |
| 20260504015750 | 9 | 244 | 0.0 | 0.0 | 0.00 | 0.00 | 0.00 | 76 | 1015.5 |
| 20260504015247 | 9 | 244 | 0.0 | 0.0 | 0.00 | 0.00 | 0.00 | 75 | 1015.6 |
| 20260504014743 | 9 | 244 | 0.0 | 0.0 | 0.00 | 0.00 | 0.00 | 75 | 1015.6 |
| 20260504014240 | 9 | 244 | 0.0 | 0.0 | 0.00 | 0.00 | 0.00 | 78 | 1015.7 |
| 20260504013737 | 10 | 244 | 0.0 | 0.0 | 0.00 | 0.00 | 0.00 | 79 | 1015.7 |
| 20260504013235 | 10 | 244 | 0.0 | 0.0 | 0.00 | 0.00 | 0.00 | 75 | 1015.5 |
| 20260504012731 | 10 | 244 | 0.0 | 0.0 | 0.00 | 0.00 | 0.00 | 73 | 1015.5 |
| 20260504012229 | 10 | 244 | 0.0 | 0.0 | 0.00 | 0.00 | 0.00 | 71 | 1015.6 |
| 20260504011726 | 10 | 244 | 0.0 | 0.0 | 0.00 | 0.00 | 0.00 | 67 | 1015.6 |
| 20260504011223 | 10 | 244 | 0.0 | 0.0 | 0.00 | 0.00 | 0.00 | 66 | 1015.6 |
| 20260504010719 | 10 | 244 | 0.0 | 0.0 | 0.00 | 0.00 | 0.00 | 66 | 1015.4 |
| 20260504010215 | 11 | 244 | 0.0 | 0.0 | 0.00 | 0.00 | 0.00 | 70 | 1015.6 |
| 20260504005711 | 11 | 244 | 0.0 | 0.0 | 0.00 | 0.00 | 0.00 | 65 | 1015.6 |
| 20260504005209 | 11 | 244 | 0.0 | 0.0 | 0.00 | 0.00 | 0.00 | 64 | 1015.7 |
| 20260504004706 | 11 | 244 | 0.0 | 0.0 | 0.00 | 0.00 | 0.00 | 64 | 1015.6 |
| 20260504004203 | 11 | 244 | 0.0 | 0.0 | 0.00 | 0.00 | 0.00 | 66 | 1015.7 |
| 20260504003700 | 11 | 244 | 0.0 | 0.0 | 0.00 | 0.00 | 0.00 | 65 | 1015.5 |
| 20260504003156 | 11 | 244 | 0.0 | 1.6 | 0.00 | 0.00 | 0.00 | 62 | 1015.4 |
| 20260504002653 | 11 | 244 | 1.6 | 1.6 | 0.00 | 0.00 | 0.00 | 60 | 1015.4 |
| 20260504002150 | 11 | 244 | 0.0 | 1.6 | 0.00 | 0.00 | 0.00 | 59 | 1015.5 |
| 20260504001648 | 12 | 244 | 1.6 | 3.2 | 0.00 | 0.00 | 0.00 | 56 | 1015.3 |
| 20260504001144 | 13 | 261 | 0.0 | 1.6 | 0.00 | 0.00 | 0.00 | 52 | 1015.3 |
| 20260504000641 | 13 | 261 | 1.6 | 3.2 | 0.00 | 0.00 | 0.00 | 41 | 1015.4 |
| 20260504000139 | 13 | 250 | 3.2 | 3.2 | 0.00 | 0.00 | 0.00 | 37 | 1015.4 |
| 20260503235637 | 13 | 279 | 3.2 | 4.8 | 0.00 | 0.00 | 0.00 | 37 | 1015.2 |
| 20260503235133 | 14 | 260 | 1.6 | 4.8 | 0.00 | 0.00 | 0.00 | 37 | 1015.3 |
| 20260503234631 | 14 | 246 | 3.2 | 6.4 | 0.00 | 0.00 | 0.00 | 36 | 1015.5 |
| 20260503234129 | 14 | 272 | 3.2 | 4.8 | 0.00 | 0.00 | 0.00 | 35 | 1015.5 |
| 20260503233626 | 14 | 250 | 1.6 | 4.8 | 0.00 | 0.00 | 0.00 | 38 | 1015.5 |
| 20260503233121 | 14 | 257 | 1.6 | 3.2 | 0.00 | 0.00 | 0.00 | 37 | 1015.6 |
| 20260503232619 | 14 | 251 | 1.6 | 4.8 | 0.00 | 0.00 | 0.00 | 37 | 1015.5 |
| 20260503232116 | 14 | 244 | 1.6 | 3.2 | 0.00 | 0.00 | 0.00 | 36 | 1015.5 |
| 20260503231614 | 14 | 263 | 3.2 | 6.4 | 0.00 | 0.00 | 0.00 | 37 | 1015.7 |
| 20260503231111 | 15 | 263 | 6.4 | 11.3 | 0.00 | 0.00 | 0.00 | 35 | 1015.6 |
| 20260503230608 | 15 | 231 | 6.4 | 20.9 | 0.00 | 0.00 | 0.00 | 36 | 1015.8 |
| 20260503230105 | 15 | 291 | 3.2 | 4.8 | 0.00 | 0.00 | 0.00 | 34 | 1015.7 |
| 20260503225603 | 15 | 298 | 3.2 | 11.3 | 0.00 | 0.00 | 0.00 | 33 | 1015.8 |
| 20260503225057 | 15 | 295 | 4.8 | 11.3 | 0.00 | 0.00 | 0.00 | 38 | 1015.7 |
| 20260503224555 | 15 | 223 | 6.4 | 9.7 | 0.00 | 0.00 | 0.00 | 33 | 1015.8 |
| 20260503224053 | 16 | 244 | 14.5 | 16.1 | 0.00 | 0.00 | 0.00 | 33 | 1015.9 |
| 20260503223550 | 16 | 313 | 9.7 | 11.3 | 0.00 | 0.00 | 0.00 | 33 | 1015.8 |
| 20260503223045 | 16 | 225 | 3.2 | 11.3 | 0.00 | 0.00 | 0.00 | 34 | 1015.7 |
| 20260503222544 | 16 | 309 | 8.0 | 11.3 | 0.00 | 0.00 | 0.00 | 37 | 1015.8 |
| 20260503222041 | 16 | 312 | 9.7 | 20.9 | 0.00 | 0.00 | 0.00 | 32 | 1015.9 |
| 20260503221539 | 16 | 302 | 9.7 | 14.5 | 0.00 | 0.00 | 0.00 | 34 | 1016.0 |
| 20260503221037 | 16 | 198 | 4.8 | 14.5 | 0.00 | 0.00 | 0.00 | 34 | 1015.8 |
| 20260503220533 | 16 | 167 | 1.6 | 6.4 | 0.00 | 0.00 | 0.00 | 32 | 1015.8 |
| 20260503220030 | 16 | 267 | 8.0 | 17.7 | 0.00 | 0.00 | 0.00 | 37 | 1015.9 |
| 20260503215527 | 16 | 312 | 6.4 | 12.9 | 0.00 | 0.00 | 0.00 | 35 | 1015.9 |
| 20260503215024 | 16 | 313 | 8.0 | 11.3 | 0.00 | 0.00 | 0.00 | 34 | 1015.9 |
| 20260503214522 | 16 | 317 | 4.8 | 9.7 | 0.00 | 0.00 | 0.00 | 37 | 1015.8 |
| 20260503214018 | 16 | 181 | 8.0 | 11.3 | 0.00 | 0.00 | 0.00 | 30 | 1015.9 |
| 20260503213517 | 16 | 223 | 4.8 | 11.3 | 0.00 | 0.00 | 0.00 | 33 | 1015.7 |
| 20260503213013 | 16 | 330 | 3.2 | 17.7 | 0.00 | 0.00 | 0.00 | 32 | 1015.8 |
| 20260503212511 | 16 | 170 | 8.0 | 11.3 | 0.00 | 0.00 | 0.00 | 33 | 1015.6 |
| 20260503212008 | 16 | 270 | 3.2 | 9.7 | 0.00 | 0.00 | 0.00 | 31 | 1015.8 |
| 20260503211505 | 16 | 313 | 9.7 | 22.5 | 0.00 | 0.00 | 0.00 | 34 | 1015.8 |
| 20260503211000 | 16 | 266 | 3.2 | 6.4 | 0.00 | 0.00 | 0.00 | 32 | 1015.8 |
| 20260503210457 | 15 | 310 | 12.9 | 14.5 | 0.00 | 0.00 | 0.00 | 36 | 1015.8 |
| 20260503205951 | 16 | 288 | 1.6 | 4.8 | 0.00 | 0.00 | 0.00 | 34 | 1016.0 |
| 20260503205449 | 15 | 307 | 1.6 | 12.9 | 0.00 | 0.00 | 0.00 | 38 | 1015.9 |
| 20260503204945 | 16 | 310 | 9.7 | 24.1 | 0.00 | 0.00 | 0.00 | 33 | 1015.8 |
| 20260503204443 | 16 | 314 | 8.0 | 11.3 | 0.00 | 0.00 | 0.00 | 37 | 1015.9 |
| 20260503203939 | 15 | 313 | 6.4 | 16.1 | 0.00 | 0.00 | 0.00 | 38 | 1016.0 |
| 20260503203437 | 15 | 309 | 4.8 | 6.4 | 0.00 | 0.00 | 0.00 | 36 | 1016.2 |
| 20260503202933 | 15 | 250 | 9.7 | 16.1 | 0.00 | 0.00 | 0.00 | 34 | 1016.1 |
| 20260503202432 | 16 | 319 | 1.6 | 9.7 | 0.00 | 0.00 | 0.00 | 33 | 1016.4 |
| 20260503201930 | 15 | 312 | 8.0 | 17.7 | 0.00 | 0.00 | 0.00 | 34 | 1016.5 |
| 20260503201426 | 15 | 324 | 6.4 | 14.5 | 0.00 | 0.00 | 0.00 | 34 | 1016.5 |
| 20260503200924 | 16 | 298 | 9.7 | 11.3 | 0.00 | 0.00 | 0.00 | 35 | 1016.6 |
| 20260503200420 | 16 | 323 | 1.6 | 4.8 | 0.00 | 0.00 | 0.00 | 40 | 1016.7 |
| 20260503195917 | 15 | 307 | 3.2 | 12.9 | 0.00 | 0.00 | 0.00 | 34 | 1016.9 |
| 20260503195415 | 15 | 255 | 6.4 | 17.7 | 0.00 | 0.00 | 0.00 | 35 | 1016.9 |
| 20260503194911 | 15 | 251 | 3.2 | 12.9 | 0.00 | 0.00 | 0.00 | 35 | 1016.9 |
| 20260503194408 | 16 | 313 | 14.5 | 16.1 | 0.00 | 0.00 | 0.00 | 38 | 1017.0 |
| 20260503193904 | 15 | 270 | 8.0 | 11.3 | 0.00 | 0.00 | 0.00 | 37 | 1017.2 |
| 20260503193359 | 15 | 313 | 4.8 | 11.3 | 0.00 | 0.00 | 0.00 | 33 | 1017.4 |
| 20260503192855 | 15 | 312 | 12.9 | 17.7 | 0.00 | 0.00 | 0.00 | 33 | 1017.4 |
| 20260503192351 | 15 | 312 | 9.7 | 14.5 | 0.00 | 0.00 | 0.00 | 34 | 1017.6 |
| 20260503191847 | 15 | 307 | 3.2 | 3.2 | 0.00 | 0.00 | 0.00 | 34 | 1017.5 |
| 20260503191345 | 15 | 261 | 4.8 | 12.9 | 0.00 | 0.00 | 0.00 | 31 | 1017.7 |
| 20260503190841 | 15 | 264 | 14.5 | 20.9 | 0.00 | 0.00 | 0.00 | 33 | 1017.9 |
| 20260503190338 | 16 | 313 | 8.0 | 14.5 | 0.00 | 0.00 | 0.00 | 38 | 1018.0 |
| 20260503185835 | 16 | 62 | 3.2 | 12.9 | 0.00 | 0.00 | 0.00 | 38 | 1018.0 |
| 20260503185331 | 15 | 316 | 4.8 | 11.3 | 0.00 | 0.00 | 0.00 | 37 | 1017.9 |
| 20260503184831 | 15 | 140 | 0.0 | 3.2 | 0.00 | 0.00 | 0.00 | 38 | 1017.9 |
| 20260503184327 | 15 | 243 | 4.8 | 22.5 | 0.00 | 0.00 | 0.00 | 33 | 1018.1 |
| 20260503183823 | 14 | 191 | 1.6 | 4.8 | 0.00 | 0.00 | 0.00 | 37 | 1018.1 |
| 20260503183321 | 14 | 33 | 1.6 | 9.7 | 0.00 | 0.00 | 0.00 | 33 | 1018.3 |
| 20260503182818 | 13 | 255 | 6.4 | 11.3 | 0.00 | 0.00 | 0.00 | 35 | 1018.2 |
| 20260503182317 | 13 | 275 | 4.8 | 16.1 | 0.00 | 0.00 | 0.00 | 37 | 1018.1 |
| 20260503181814 | 13 | 255 | 8.0 | 14.5 | 0.00 | 0.00 | 0.00 | 35 | 1018.3 |
| 20260503181311 | 13 | 225 | 3.2 | 4.8 | 0.00 | 0.00 | 0.00 | 37 | 1018.2 |
| 20260503180807 | 13 | 257 | 6.4 | 12.9 | 0.00 | 0.00 | 0.00 | 36 | 1018.3 |
| 20260503180305 | 14 | 223 | 4.8 | 9.7 | 0.00 | 0.00 | 0.00 | 34 | 1018.5 |
| 20260503175801 | 14 | 73 | 4.8 | 6.4 | 0.00 | 0.00 | 0.00 | 36 | 1018.6 |
| 20260503175300 | 13 | 325 | 3.2 | 6.4 | 0.00 | 0.00 | 0.00 | 39 | 1018.6 |
| 20260503174755 | 13 | 231 | 11.3 | 12.9 | 0.00 | 0.00 | 0.00 | 37 | 1018.9 |
| 20260503174253 | 14 | 319 | 16.1 | 17.7 | 0.00 | 0.00 | 0.00 | 44 | 1018.7 |
| 20260503173748 | 13 | 93 | 1.6 | 3.2 | 0.00 | 0.00 | 0.00 | 39 | 1018.8 |
| 20260503173244 | 13 | 106 | 1.6 | 4.8 | 0.00 | 0.00 | 0.00 | 35 | 1018.7 |
| 20260503172741 | 14 | 332 | 3.2 | 11.3 | 0.00 | 0.00 | 0.00 | 37 | 1018.9 |
| 20260503172238 | 13 | 314 | 6.4 | 22.5 | 0.00 | 0.00 | 0.00 | 40 | 1019.2 |
| 20260503171735 | 12 | 56 | 1.6 | 6.4 | 0.00 | 0.00 | 0.00 | 39 | 1019.1 |
| 20260503171232 | 12 | 75 | 3.2 | 6.4 | 0.00 | 0.00 | 0.00 | 41 | 1019.1 |
| 20260503170729 | 12 | 250 | 0.0 | 9.7 | 0.00 | 0.00 | 0.00 | 38 | 1019.2 |
| 20260503170226 | 13 | 313 | 6.4 | 17.7 | 0.00 | 0.00 | 0.00 | 46 | 1019.3 |
| 20260503160147 | 12 | 320 | 6.4 | 14.5 | 0.00 | 0.00 | 0.00 | 43 | 1020.3 |
| 20260503150618 | 10 | 217 | 4.8 | 22.5 | 0.00 | 0.00 | 0.00 | 47 | 1020.4 |
| 20260503150114 | 10 | 288 | 12.9 | 16.1 | 0.00 | 0.00 | 0.00 | 46 | 1020.4 |
| 20260503131008 | 6 | 355 | 0.0 | 0.0 | 0.00 | 0.00 | 0.00 | 75 | 1020.5 |
| 20260503130505 | 6 | 356 | 0.0 | 0.0 | 0.00 | 0.00 | 0.00 | 78 | 1020.4 |
| 20260503110401 | -2 | 294 | 0.0 | 0.0 | 0.00 | 0.00 | 0.00 | 98 | 1019.5 |
| 20260503090252 | -2 | 294 | 0.0 | 0.0 | 0.00 | 0.00 | 0.00 | 98 | 1018.8 |
| 20260503081219 | -1 | 294 | 0.0 | 0.0 | 0.00 | 0.00 | 0.00 | 98 | 1018.5 |
| 20260503080715 | -1 | 294 | 0.0 | 0.0 | 0.00 | 0.00 | 0.00 | 98 | 1018.4 |
| 20260503080212 | -1 | 294 | 0.0 | 0.0 | 0.00 | 0.00 | 0.00 | 98 | 1018.6 |
| 20260503072649 | -1 | 294 | 0.0 | 0.0 | 0.00 | 0.00 | 0.00 | 97 | 1018.4 |
| 20260503072145 | -1 | 294 | 0.0 | 0.0 | 0.00 | 0.00 | 0.00 | 97 | 1018.2 |
| 20260503071642 | -1 | 294 | 0.0 | 0.0 | 0.00 | 0.00 | 0.00 | 97 | 1018.3 |
| 20260503071139 | -1 | 294 | 0.0 | 0.0 | 0.00 | 0.00 | 0.00 | 97 | 1018.1 |
| 20260503070636 | -1 | 294 | 0.0 | 0.0 | 0.00 | 0.00 | 0.00 | 97 | 1018.0 |
| 20260503070134 | -1 | 294 | 0.0 | 0.0 | 0.00 | 0.00 | 0.00 | 97 | 1018.0 |
| 20260503055050 | 0 | 294 | 0.0 | 0.0 | 0.00 | 0.00 | 0.00 | 97 | 1018.2 |